Location: Unspecified
(0.0000°N, 0.0000°E)
Time: 13:41:27
(UTC+00:00)

JUGNU - Pass Details

Date: 26 February 2020
Orbit: 836 x 864 km, 20.0° (Epoch: 01 April)

Event Time Altitude Azimuth Distance (km) Brightness Sun altitude
Exits shadow 04:02:08 34° 166° (SSE) 1,372 ? -32.3°
Maximum altitude 04:02:22 34° 161° (SSE) 1,370 ? -32.2°
Drops below altitude 10° 04:07:42 10° 97° (E) 2,476 ? -30.9°
Sets 04:10:30 0° 88° (E) 3,416 ? -30.2°
